Orbital Elements at Epoch 2459200.5 (2020-Dec-17.0) TDB
Reference: JPL 16 (heliocentric ecliptic J2000)
Element | Value | Uncertainty (1-sigma) | Units |
e | .09078404670182894 | 4.4222e-08 | |
a | 3.060875011402485 | 3.0356e-08 | au |
q | 2.782996391418861 | 1.3974e-07 | au |
i | 8.579808694402635 | 6.0363e-06 | deg |
node | 61.84970381935862 | 3.414e-05 | deg |
peri | 262.7391305437494 | 4.9492e-05 | deg |
M | 285.0030322228188 | 3.8873e-05 | deg |
tp | 2459607.981620445265 (2022-Jan-28.48162045) | 0.00021415 | TDB |
period | 1955.990858138782 5.36 | 2.9097e-05 7.966e-08 | d yr |
n | .1840499399585932 | 2.7379e-09 | deg/d |
Q | 3.33875363138611 | 3.3112e-08 | au |
|
| | Orbit Determination Parameters
Additional Information
|